Voltar ao catálogo

FENGYUN 1C DEB

AtivoSSO
NORAD 31475·DEBRIS·🇨🇳 China

Lançado May 10, 1999 de Taiyuan Satellite Launch Center

Loading…

Próximas Passagens (próximas 24 horas)

TLE

EnvelhecendoSource: Space-Track

Época: Sep 7, 2026, 00:13 UTC

1 31475U 99025BVP 26250.00907311  .00001870  00000-0  47760-3 0  9994
2 31475  98.9144 154.8267 0208579  34.8097 326.6532 14.39578743999377

Acompanhe FENGYUN 1C DEB em tempo real com AllMySat

Download on the App Store